Location: Leipzig
(51.3203°N, 12.3761°E)
Time: 04:44:13
(UTC+02:00)

ISS - Visible Passes

Search period start: 02 October 2022 00:00
Search period end: 12 October 2022 00:00
Orbit: 416 x 420 km, 51.6° (Epoch: 01 October)

Date Brightness Start Highest point End Pass type
(mag) Time Alt. Az. Time Alt. Az. Time Alt. Az.
02 Oct -2.3 19:43:58 10° W 19:47:03 33° SSW 19:50:07 10° SE visible
03 Oct -0.9 20:34:10 10° WSW 20:35:27 12° SW 20:36:45 10° SSW visible
04 Oct -1.1 19:45:40 10° W 19:47:59 17° SW 19:50:16 10° S visible
